| time (UTC) | temp F | wind direction | speed MPH | gust MPH | rain 1hr in | rain 24hr in | rain mn in | humidity % | barometer mb |
| 20260506235306 | 54 | 324 | 0.0 | 0.0 | 0.00 | 0.23 | 0.23 | 56 | |
| 20260506234754 | 54 | 1 | 0.0 | 0.0 | 0.00 | 0.23 | 0.23 | 55 | |
| 20260506234251 | 54 | 326 | 0.0 | 0.0 | 0.00 | 0.23 | 0.23 | 54 | |
| 20260506233749 | 54 | 330 | 0.0 | 1.0 | 0.00 | 0.23 | 0.23 | 53 | |
| 20260506233245 | 55 | 332 | 1.0 | 6.0 | 0.00 | 0.23 | 0.23 | 52 | |
| 20260506232742 | 54 | 333 | 0.0 | 2.0 | 0.00 | 0.23 | 0.23 | 53 | |
| 20260506232236 | 54 | 341 | 1.0 | 5.0 | 0.00 | 0.23 | 0.23 | 52 | |
| 20260506231734 | 55 | 339 | 0.0 | 2.0 | 0.00 | 0.23 | 0.23 | 51 | |
| 20260506231232 | 55 | 338 | 0.0 | 0.0 | 0.00 | 0.23 | 0.23 | 53 | |
| 20260506230729 | 55 | 336 | 2.0 | 3.0 | 0.00 | 0.23 | 0.23 | 52 | |
| 20260506230225 | 55 | 323 | 1.0 | 3.0 | 0.00 | 0.23 | 0.23 | 52 | |
| 20260506225722 | 55 | 341 | 0.0 | 1.0 | 0.00 | 0.23 | 0.23 | 53 | |
| 20260506225221 | 55 | 348 | 1.0 | 2.0 | 0.00 | 0.23 | 0.23 | 52 | |
| 20260506224715 | 55 | 340 | 0.0 | 2.0 | 0.00 | 0.23 | 0.23 | 53 | |
| 20260506224213 | 55 | 312 | 0.0 | 2.0 | 0.00 | 0.23 | 0.23 | 54 | |
| 20260506223709 | 55 | 295 | 0.0 | 2.0 | 0.00 | 0.23 | 0.23 | 52 | |
| 20260506223205 | 55 | 309 | 0.0 | 2.0 | 0.00 | 0.23 | 0.23 | 54 | |
| 20260506222702 | 55 | 338 | 0.0 | 0.0 | 0.00 | 0.23 | 0.23 | 55 | |
| 20260506222157 | 55 | 344 | 0.0 | 1.0 | 0.00 | 0.23 | 0.23 | 54 | |
| 20260506221656 | 55 | 350 | 0.0 | 1.0 | 0.00 | 0.23 | 0.23 | 53 | |
| 20260506221153 | 56 | 319 | 1.0 | 3.0 | 0.00 | 0.23 | 0.23 | 53 | |
| 20260506220650 | 56 | 308 | 0.0 | 0.0 | 0.00 | 0.23 | 0.23 | 52 | |
| 20260506220145 | 56 | 349 | 0.0 | 1.0 | 0.00 | 0.23 | 0.23 | 52 | |
| 20260506215642 | 56 | 347 | 1.0 | 2.0 | 0.00 | 0.23 | 0.23 | 52 | |
| 20260506215137 | 55 | 356 | 0.0 | 2.0 | 0.00 | 0.23 | 0.23 | 52 | |
| 20260506214634 | 56 | 325 | 0.0 | 2.0 | 0.00 | 0.23 | 0.23 | 52 | |
| 20260506214132 | 55 | 350 | 0.0 | 2.0 | 0.00 | 0.23 | 0.23 | 53 | |
| 20260506213630 | 55 | 341 | 1.0 | 2.0 | 0.00 | 0.23 | 0.23 | 51 | |
| 20260506213127 | 56 | 2 | 0.0 | 2.0 | 0.00 | 0.23 | 0.23 | 51 | |
| 20260506212624 | 55 | 359 | 1.0 | 3.0 | 0.00 | 0.23 | 0.23 | 52 | |
| 20260506212119 | 55 | 339 | 0.0 | 0.0 | 0.00 | 0.23 | 0.23 | 52 | |
| 20260506211614 | 55 | 353 | 0.0 | 1.0 | 0.00 | 0.23 | 0.23 | 52 | |
| 20260506211112 | 56 | 18 | 2.0 | 3.0 | 0.00 | 0.23 | 0.23 | 52 | |
| 20260506210609 | 56 | 358 | 1.0 | 6.0 | 0.00 | 0.23 | 0.23 | 52 | |
| 20260506210105 | 55 | 352 | 0.0 | 1.0 | 0.00 | 0.23 | 0.23 | 53 | |
| 20260506205602 | 55 | 351 | 1.0 | 2.0 | 0.00 | 0.23 | 0.23 | 53 | |
| 20260506205057 | 56 | 326 | 2.0 | 3.0 | 0.00 | 0.23 | 0.23 | 52 | |
| 20260506204555 | 56 | 344 | 0.0 | 0.0 | 0.00 | 0.23 | 0.23 | 54 | |
| 20260506204052 | 56 | 349 | 1.0 | 3.0 | 0.00 | 0.23 | 0.23 | 53 | |
| 20260506203550 | 56 | 338 | 0.0 | 0.0 | 0.00 | 0.23 | 0.23 | 54 | |
| 20260506203046 | 56 | 331 | 1.0 | 2.0 | 0.00 | 0.23 | 0.23 | 54 | |
| 20260506202544 | 56 | 356 | 0.0 | 1.0 | 0.00 | 0.23 | 0.23 | 54 | |
| 20260506202040 | 57 | 11 | 0.0 | 3.0 | 0.00 | 0.23 | 0.23 | 52 | |
| 20260506201538 | 57 | 4 | 1.0 | 2.0 | 0.00 | 0.23 | 0.23 | 50 | |
| 20260506201034 | 56 | 349 | 1.0 | 3.0 | 0.00 | 0.23 | 0.23 | 51 | |
| 20260506200530 | 56 | 343 | 0.0 | 5.0 | 0.00 | 0.23 | 0.23 | 53 | |
| 20260506200027 | 56 | 9 | 1.0 | 9.0 | 0.00 | 0.23 | 0.23 | 53 | |
| 20260506195524 | 56 | 354 | 1.0 | 2.0 | 0.00 | 0.23 | 0.23 | 53 | |
| 20260506195020 | 57 | 3 | 2.0 | 2.0 | 0.00 | 0.23 | 0.23 | 53 | |
| 20260506194518 | 56 | 14 | 0.0 | 0.0 | 0.00 | 0.23 | 0.23 | 54 | |
| 20260506194015 | 57 | 25 | 2.0 | 3.0 | 0.00 | 0.23 | 0.23 | 54 | |
| 20260506193512 | 57 | 10 | 0.0 | 3.0 | 0.00 | 0.23 | 0.23 | 53 | |
| 20260506193009 | 57 | 7 | 2.0 | 6.0 | 0.00 | 0.23 | 0.23 | 52 | |
| 20260506192506 | 57 | 8 | 1.0 | 3.0 | 0.00 | 0.23 | 0.23 | 52 | |
| 20260506192002 | 57 | 1 | 1.0 | 3.0 | 0.00 | 0.23 | 0.23 | 53 | |
| 20260506191459 | 57 | 5 | 0.0 | 2.0 | 0.00 | 0.23 | 0.23 | 52 | |
| 20260506190955 | 58 | 24 | 0.0 | 5.0 | 0.00 | 0.23 | 0.23 | 52 | |
| 20260506190452 | 58 | 306 | 0.0 | 1.0 | 0.00 | 0.23 | 0.23 | 50 | |
| 20260506185948 | 58 | 346 | 0.0 | 2.0 | 0.00 | 0.23 | 0.23 | 51 | |
| 20260506185446 | 59 | 327 | 0.0 | 1.0 | 0.00 | 0.23 | 0.23 | 52 | |
| 20260506184943 | 58 | 7 | 1.0 | 3.0 | 0.00 | 0.23 | 0.23 | 52 | |
| 20260506184439 | 58 | 3 | 3.0 | 8.0 | 0.00 | 0.23 | 0.23 | 52 | |
| 20260506183937 | 57 | 14 | 2.0 | 3.0 | 0.00 | 0.23 | 0.23 | 52 | |
| 20260506183432 | 58 | 332 | 0.0 | 3.0 | 0.00 | 0.23 | 0.23 | 52 | |
| 20260506182929 | 58 | 333 | 0.0 | 2.0 | 0.00 | 0.23 | 0.23 | 52 | |
| 20260506182427 | 58 | 358 | 0.0 | 2.0 | 0.00 | 0.23 | 0.23 | 52 | |
| 20260506181924 | 59 | 3 | 2.0 | 3.0 | 0.00 | 0.23 | 0.23 | 52 | |
| 20260506181422 | 58 | 307 | 0.0 | 8.0 | 0.00 | 0.23 | 0.23 | 52 | |
| 20260506180918 | 57 | 358 | 2.0 | 3.0 | 0.00 | 0.23 | 0.23 | 54 | |
| 20260506180414 | 58 | 32 | 1.0 | 2.0 | 0.00 | 0.23 | 0.23 | 56 | |
| 20260506175911 | 58 | 354 | 0.0 | 2.0 | 0.00 | 0.23 | 0.23 | 54 | |
| 20260506175408 | 57 | 1 | 1.0 | 2.0 | 0.00 | 0.23 | 0.23 | 52 | |
| 20260506174905 | 57 | 346 | 1.0 | 5.0 | 0.00 | 0.23 | 0.23 | 53 | |
| 20260506174403 | 58 | 320 | 0.0 | 7.0 | 0.00 | 0.23 | 0.23 | 53 | |
| 20260506173900 | 58 | 302 | 1.0 | 3.0 | 0.00 | 0.23 | 0.23 | 55 | |
| 20260506173356 | 58 | 291 | 4.0 | 9.0 | 0.00 | 0.23 | 0.23 | 51 | |
| 20260506172854 | 58 | 357 | 2.0 | 11.0 | 0.00 | 0.23 | 0.23 | 53 | |
| 20260506172350 | 58 | 334 | 0.0 | 1.0 | 0.00 | 0.23 | 0.23 | 53 | |
| 20260506171848 | 57 | 1 | 0.0 | 5.0 | 0.00 | 0.23 | 0.23 | 53 | |
| 20260506171344 | 57 | 23 | 1.0 | 2.0 | 0.00 | 0.23 | 0.23 | 53 | |
| 20260506170842 | 57 | 333 | 3.0 | 7.0 | 0.00 | 0.23 | 0.23 | 52 | |
| 20260506170338 | 56 | 355 | 3.0 | 7.0 | 0.00 | 0.23 | 0.23 | 57 | |
| 20260506165832 | 55 | 5 | 0.0 | 5.0 | 0.00 | 0.23 | 0.23 | 58 | |
| 20260506165329 | 57 | 323 | 2.0 | 5.0 | 0.00 | 0.23 | 0.23 | 58 | |
| 20260506164825 | 56 | 1 | 1.0 | 6.0 | 0.00 | 0.23 | 0.23 | 57 | |
| 20260506164322 | 56 | 354 | 2.0 | 3.0 | 0.00 | 0.23 | 0.23 | 56 | |
| 20260506163820 | 56 | 338 | 2.0 | 6.0 | 0.00 | 0.23 | 0.23 | 58 | |
| 20260506163314 | 57 | 354 | 1.0 | 2.0 | 0.00 | 0.23 | 0.23 | 57 | |
| 20260506162810 | 55 | 354 | 0.0 | 3.0 | 0.00 | 0.23 | 0.23 | 58 | |
| 20260506162308 | 55 | 339 | 0.0 | 0.0 | 0.00 | 0.23 | 0.23 | 62 | |
| 20260506161805 | 55 | 292 | 0.0 | 1.0 | 0.00 | 0.23 | 0.23 | 60 | |
| 20260506161302 | 55 | 242 | 1.0 | 5.0 | 0.00 | 0.23 | 0.23 | 63 | |
| 20260506160800 | 55 | 340 | 0.0 | 6.0 | 0.00 | 0.23 | 0.23 | 59 | |
| 20260506160256 | 55 | 349 | 0.0 | 0.0 | 0.00 | 0.23 | 0.23 | 60 | |
| 20260506155755 | 55 | 321 | 0.0 | 7.0 | 0.00 | 0.23 | 0.23 | 62 | |
| 20260506155252 | 53 | 46 | 0.0 | 5.0 | 0.00 | 0.23 | 0.23 | 64 | |
| 20260506153404 | 53 | 13 | 0.0 | 0.0 | 0.00 | 0.23 | 0.23 | 65 | |
| 20260506152901 | 52 | 28 | 0.0 | 1.0 | 0.00 | 0.23 | 0.23 | 64 | |
| 20260506152358 | 52 | 335 | 0.0 | 1.0 | 0.00 | 0.23 | 0.23 | 64 | |
| 20260506151857 | 52 | 9 | 1.0 | 5.0 | 0.00 | 0.23 | 0.23 | 65 | |
| 20260506151353 | 52 | 354 | 0.0 | 2.0 | 0.00 | 0.23 | 0.23 | 65 | |
| 20260506150851 | 52 | 337 | 0.0 | 2.0 | 0.00 | 0.23 | 0.23 | 64 | |
| 20260506150347 | 51 | 329 | 0.0 | 2.0 | 0.00 | 0.23 | 0.23 | 65 | |
| 20260506145844 | 51 | 67 | 0.0 | 1.0 | 0.00 | 0.23 | 0.23 | 67 | |
| 20260506145340 | 50 | 339 | 0.0 | 2.0 | 0.00 | 0.23 | 0.23 | 66 | |
| 20260506144838 | 50 | 7 | 0.0 | 5.0 | 0.00 | 0.23 | 0.23 | 67 | |
| 20260506144334 | 50 | 29 | 0.0 | 2.0 | 0.00 | 0.23 | 0.23 | 69 | |
| 20260506143833 | 50 | 21 | 0.0 | 1.0 | 0.00 | 0.23 | 0.23 | 71 | |
| 20260506143329 | 50 | 344 | 2.0 | 6.0 | 0.00 | 0.23 | 0.23 | 69 | |
| 20260506142828 | 50 | 321 | 0.0 | 0.0 | 0.00 | 0.23 | 0.23 | 72 | |
| 20260506142325 | 50 | 341 | 1.0 | 2.0 | 0.00 | 0.23 | 0.23 | 74 | |
| 20260506141824 | 49 | 357 | 1.0 | 3.0 | 0.00 | 0.23 | 0.23 | 75 | |
| 20260506141321 | 49 | 18 | 0.0 | 3.0 | 0.00 | 0.23 | 0.23 | 76 | |
| 20260506140819 | 49 | 340 | 0.0 | 3.0 | 0.00 | 0.23 | 0.23 | 77 | |
| 20260506140316 | 49 | 332 | 3.0 | 6.0 | 0.00 | 0.23 | 0.23 | 78 | |
| 20260506135813 | 48 | 355 | 1.0 | 2.0 | 0.00 | 0.23 | 0.23 | 78 | |
| 20260506135309 | 48 | 343 | 0.0 | 5.0 | 0.00 | 0.23 | 0.23 | 79 | |
| 20260506134806 | 48 | 14 | 0.0 | 8.0 | 0.00 | 0.23 | 0.23 | 79 | |
| 20260506134302 | 47 | 338 | 0.0 | 2.0 | 0.00 | 0.23 | 0.23 | 80 | |
| 20260506133759 | 48 | 359 | 0.0 | 0.0 | 0.00 | 0.23 | 0.23 | 82 | |
| 20260506133256 | 48 | 343 | 0.0 | 2.0 | 0.00 | 0.23 | 0.23 | 81 | |
| 20260506132753 | 47 | 22 | 0.0 | 8.0 | 0.00 | 0.23 | 0.23 | 81 | |
| 20260506132250 | 47 | 7 | 0.0 | 5.0 | 0.00 | 0.23 | 0.23 | 83 | |
| 20260506131748 | 46 | 334 | 0.0 | 3.0 | 0.00 | 0.23 | 0.23 | 84 | |
| 20260506131243 | 46 | 335 | 0.0 | 1.0 | 0.00 | 0.23 | 0.23 | 85 | |
| 20260506130741 | 46 | 18 | 5.0 | 10.0 | 0.00 | 0.23 | 0.23 | 87 | |
| 20260506130237 | 45 | 3 | 0.0 | 2.0 | 0.00 | 0.23 | 0.23 | 89 | |
| 20260506125736 | 45 | 5 | 2.0 | 6.0 | 0.00 | 0.23 | 0.23 | 91 | |
| 20260506125233 | 45 | 345 | 0.0 | 6.0 | 0.00 | 0.23 | 0.23 | 92 | |
| 20260506124731 | 45 | 353 | 0.0 | 1.0 | 0.00 | 0.23 | 0.23 | 93 | |
| 20260506124229 | 44 | 351 | 0.0 | 1.0 | 0.00 | 0.23 | 0.23 | 93 | |
| 20260506123726 | 45 | 341 | 0.0 | 1.0 | 0.00 | 0.23 | 0.23 | 93 | |
| 20260506123225 | 44 | 328 | 1.0 | 8.0 | 0.00 | 0.23 | 0.23 | 94 | |
| 20260506122721 | 44 | 357 | 1.0 | 5.0 | 0.00 | 0.23 | 0.23 | 94 | |
| 20260506122218 | 44 | 342 | 0.0 | 2.0 | 0.00 | 0.23 | 0.23 | 95 | |
| 20260506121716 | 44 | 5 | 0.0 | 6.0 | 0.00 | 0.23 | 0.23 | 95 | |
| 20260506121213 | 45 | 351 | 0.0 | 2.0 | 0.00 | 0.23 | 0.23 | 95 | |
| 20260506120710 | 45 | 1 | 0.0 | 5.0 | 0.00 | 0.23 | 0.23 | 95 | |
| 20260506120208 | 45 | 354 | 0.0 | 0.0 | 0.00 | 0.23 | 0.23 | 95 | |
| 20260506115706 | 45 | 10 | 0.0 | 0.0 | 0.00 | 0.23 | 0.23 | 95 | |
| 20260506115204 | 45 | 347 | 0.0 | 2.0 | 0.00 | 0.23 | 0.23 | 95 | |
| 20260506114701 | 45 | 11 | 0.0 | 2.0 | 0.00 | 0.23 | 0.23 | 95 | |
| 20260506114158 | 45 | 342 | 1.0 | 6.0 | 0.00 | 0.23 | 0.23 | 95 | |
| 20260506113657 | 45 | 357 | 0.0 | 0.0 | 0.00 | 0.23 | 0.23 | 96 | |
| 20260506113154 | 45 | 340 | 0.0 | 6.0 | 0.00 | 0.23 | 0.23 | 96 | |
| 20260506112650 | 45 | 338 | 0.0 | 0.0 | 0.00 | 0.23 | 0.23 | 96 | |
| 20260506112148 | 45 | 7 | 0.0 | 2.0 | 0.00 | 0.23 | 0.23 | 96 | |
| 20260506111645 | 45 | 358 | 0.0 | 1.0 | 0.00 | 0.23 | 0.23 | 96 | |
| 20260506111143 | 45 | 357 | 0.0 | 1.0 | 0.00 | 0.23 | 0.23 | 96 | |
| 20260506110640 | 45 | 37 | 0.0 | 2.0 | 0.00 | 0.23 | 0.23 | 96 | |
| 20260506110137 | 45 | 356 | 0.0 | 0.0 | 0.00 | 0.23 | 0.23 | 96 | |
| 20260506105633 | 45 | 14 | 0.0 | 3.0 | 0.00 | 0.23 | 0.23 | 96 | |
| 20260506105130 | 45 | 359 | 0.0 | 1.0 | 0.00 | 0.23 | 0.23 | 96 | |
| 20260506104629 | 45 | 19 | 0.0 | 1.0 | 0.00 | 0.23 | 0.23 | 96 | |
| 20260506104126 | 45 | 5 | 0.0 | 7.0 | 0.00 | 0.23 | 0.23 | 96 | |
| 20260506103623 | 45 | 344 | 0.0 | 9.0 | 0.00 | 0.23 | 0.23 | 96 | |
| 20260506103120 | 45 | 348 | 1.0 | 6.0 | 0.00 | 0.23 | 0.23 | 96 | |
| 20260506102618 | 45 | 1 | 1.0 | 3.0 | 0.00 | 0.23 | 0.23 | 96 | |
| 20260506102115 | 45 | 346 | 0.0 | 3.0 | 0.00 | 0.23 | 0.23 | 96 | |
| 20260506101612 | 45 | 353 | 0.0 | 2.0 | 0.00 | 0.23 | 0.23 | 96 | |
| 20260506101109 | 45 | 342 | 0.0 | 1.0 | 0.00 | 0.23 | 0.23 | 96 | |
| 20260506100607 | 45 | 353 | 0.0 | 7.0 | 0.00 | 0.23 | 0.23 | 96 | |
| 20260506100105 | 45 | 2 | 0.0 | 0.0 | 0.00 | 0.23 | 0.23 | 96 | |
| 20260506095604 | 45 | 340 | 0.0 | 1.0 | 0.07 | 0.23 | 0.23 | 96 | |
| 20260506095100 | 45 | 357 | 0.0 | 3.0 | 0.07 | 0.23 | 0.23 | 96 | |
| 20260506094557 | 45 | 352 | 0.0 | 3.0 | 0.00 | 0.22 | 0.22 | 96 | |
| 20260506094055 | 45 | 10 | 1.0 | 3.0 | 0.00 | 0.22 | 0.22 | 96 | |
| 20260506093553 | 45 | 354 | 0.0 | 2.0 | 0.00 | 0.22 | 0.22 | 96 | |
| 20260506093051 | 45 | 348 | 0.0 | 0.0 | 0.00 | 0.22 | 0.22 | 96 | |
| 20260506092548 | 45 | 356 | 2.0 | 6.0 | 0.00 | 0.22 | 0.22 | 96 | |
| 20260506092045 | 45 | 354 | 0.0 | 3.0 | 0.00 | 0.22 | 0.22 | 96 | |
| 20260506091543 | 45 | 7 | 1.0 | 2.0 | 0.00 | 0.22 | 0.22 | 96 | |
| 20260506091040 | 45 | 0 | 2.0 | 7.0 | 0.00 | 0.22 | 0.22 | 96 | |
| 20260506090538 | 45 | 355 | 0.0 | 7.0 | 0.00 | 0.22 | 0.22 | 96 | |
| 20260506090034 | 45 | 0 | 0.0 | 2.0 | 0.00 | 0.22 | 0.22 | 96 | |
| 20260506085531 | 45 | 4 | 1.0 | 6.0 | 0.00 | 0.22 | 0.22 | 96 | |
| 20260506085027 | 46 | 346 | 0.0 | 8.0 | 0.05 | 0.22 | 0.22 | 96 | |
| 20260506084525 | 46 | 8 | 4.0 | 6.0 | 0.00 | 0.21 | 0.21 | 96 | |
| 20260506084020 | 46 | 3 | 0.0 | 10.0 | 0.07 | 0.21 | 0.21 | 96 | |
| 20260506083517 | 46 | 349 | 0.0 | 3.0 | 0.07 | 0.21 | 0.21 | 96 | |
| 20260506083015 | 46 | 355 | 0.0 | 2.0 | 0.05 | 0.20 | 0.20 | 96 | |
| 20260506082512 | 46 | 20 | 5.0 | 7.0 | 0.05 | 0.20 | 0.20 | 96 | |
| 20260506082007 | 46 | 9 | 6.0 | 9.0 | 0.07 | 0.19 | 0.19 | 96 | |
| 20260506081506 | 46 | 19 | 5.0 | 7.0 | 0.07 | 0.18 | 0.18 | 96 | |
| 20260506081003 | 46 | 9 | 0.0 | 9.0 | 0.07 | 0.18 | 0.18 | 96 | |
| 20260506080500 | 46 | 24 | 0.0 | 9.0 | 0.00 | 0.17 | 0.17 | 96 | |
| 20260506073444 | 46 | 14 | 5.0 | 9.0 | 0.00 | 0.16 | 0.16 | 96 | |
| 20260506072941 | 46 | 342 | 0.0 | 1.0 | 0.00 | 0.16 | 0.16 | 96 | |
| 20260506072438 | 46 | 14 | 0.0 | 1.0 | 0.00 | 0.16 | 0.16 | 96 | |
| 20260506071936 | 46 | 23 | 1.0 | 6.0 | 0.00 | 0.16 | 0.16 | 96 | |
| 20260506071433 | 46 | 10 | 0.0 | 1.0 | 0.07 | 0.16 | 0.16 | 96 | |
| 20260506070930 | 46 | 8 | 0.0 | 6.0 | 0.07 | 0.16 | 0.16 | 96 | |
| 20260506070427 | 46 | 9 | 1.0 | 7.0 | 0.05 | 0.15 | 0.15 | 96 | |
| 20260506062405 | 47 | 3 | 1.0 | 7.0 | 0.07 | 0.10 | 0.10 | 96 | |
| 20260506061900 | 47 | 353 | 5.0 | 8.0 | 0.05 | 0.09 | 0.09 | 96 | |
| 20260506061357 | 47 | 348 | 0.0 | 7.0 | 0.12 | 0.09 | 0.09 | 96 | |
| 20260506060855 | 47 | 347 | 2.0 | 9.0 | 0.14 | 0.08 | 0.08 | 96 | |
| 20260506060353 | 48 | 354 | 0.0 | 6.0 | 0.07 | 0.07 | 0.07 | 96 | |
| 20260506051325 | 48 | 1 | 0.0 | 3.0 | 0.07 | 0.03 | 0.03 | 96 | |
| 20260506050823 | 49 | 319 | 0.0 | 1.0 | 0.05 | 0.02 | 0.02 | 96 | |
| 20260506050320 | 49 | 347 | 5.0 | 8.0 | 0.07 | 0.01 | 0.01 | 96 | |
| 20260506044810 | 49 | 17 | 1.0 | 2.0 | 0.00 | 0.00 | 0.00 | 96 | |
| 20260506044308 | 49 | 15 | 1.0 | 6.0 | 0.00 | 0.00 | 0.00 | 96 | |
| 20260506043805 | 49 | 1 | 0.0 | 1.0 | 0.00 | 0.00 | 0.00 | 96 | |
| 20260506043302 | 49 | 16 | 0.0 | 2.0 | 0.00 | 0.00 | 0.00 | 96 | |
| 20260506042801 | 49 | 27 | 0.0 | 0.0 | 0.00 | 0.00 | 0.00 | 96 | |
| 20260506042259 | 49 | 37 | 3.0 | 8.0 | 0.00 | 0.00 | 0.00 | 96 | |
| 20260506041757 | 49 | 7 | 0.0 | 2.0 | 0.00 | 0.00 | 0.00 | 96 | |
| 20260506041254 | 49 | 12 | 0.0 | 0.0 | 0.00 | 0.00 | 0.00 | 96 | |
| 20260506040751 | 50 | 5 | 0.0 | 3.0 | 0.00 | 0.00 | 0.00 | 96 | |
| 20260506040248 | 50 | 353 | 0.0 | 0.0 | 0.00 | 0.00 | 0.00 | 96 | |
| 20260506035745 | 49 | 12 | 0.0 | 0.0 | 0.00 | 0.51 | 0.51 | 96 | |
| 20260506035242 | 49 | 347 | 0.0 | 2.0 | 0.00 | 0.51 | 0.51 | 96 | |
| 20260506034739 | 49 | 3 | 1.0 | 2.0 | 0.00 | 0.51 | 0.51 | 96 | |
| 20260506034236 | 49 | 19 | 3.0 | 6.0 | 0.05 | 0.51 | 0.51 | 96 | |
| 20260506033733 | 49 | 8 | 1.0 | 5.0 | 0.05 | 0.51 | 0.51 | 96 | |
| 20260506033230 | 49 | 7 | 2.0 | 3.0 | 0.00 | 0.50 | 0.50 | 96 | |
| 20260506032727 | 50 | 17 | 1.0 | 2.0 | 0.07 | 0.50 | 0.50 | 96 | |
| 20260506032224 | 50 | 0 | 4.0 | 8.0 | 0.12 | 0.50 | 0.50 | 96 | |
| 20260506031720 | 50 | 52 | 1.0 | 5.0 | 0.12 | 0.49 | 0.49 | 96 | |
| 20260506031218 | 50 | 358 | 1.0 | 6.0 | 0.12 | 0.48 | 0.48 | 96 | |
| 20260506030716 | 50 | 353 | 0.0 | 6.0 | 0.12 | 0.47 | 0.47 | 96 | |
| 20260506030213 | 51 | 10 | 2.0 | 6.0 | 0.19 | 0.46 | 0.46 | 96 | |
| 20260506025710 | 52 | 8 | 3.0 | 5.0 | 0.17 | 0.44 | 0.44 | 96 | |
| 20260506025206 | 52 | 340 | 1.0 | 3.0 | 0.12 | 0.43 | 0.43 | 96 | |
| 20260506024703 | 53 | 359 | 0.0 | 2.0 | 0.00 | 0.41 | 0.41 | 96 | |
| 20260506024200 | 54 | 342 | 0.0 | 7.0 | 0.07 | 0.41 | 0.41 | 95 | |
| 20260506023656 | 59 | 328 | 0.0 | 3.0 | 0.07 | 0.41 | 0.41 | 95 | |
| 20260506023154 | 59 | 311 | 0.0 | 0.0 | 0.00 | 0.40 | 0.40 | 96 | |
| 20260506022650 | 59 | 330 | 0.0 | 0.0 | 0.05 | 0.40 | 0.40 | 96 | |
| 20260506022148 | 59 | 297 | 0.0 | 0.0 | 0.05 | 0.40 | 0.40 | 96 | |
| 20260506021646 | 59 | 328 | 0.0 | 0.0 | 0.07 | 0.39 | 0.39 | 96 | |
| 20260506021143 | 59 | 322 | 0.0 | 0.0 | 0.05 | 0.38 | 0.38 | 96 | |
| 20260506020640 | 59 | 318 | 0.0 | 0.0 | 0.12 | 0.38 | 0.38 | 96 | |
| 20260506020137 | 59 | 317 | 0.0 | 0.0 | 0.12 | 0.37 | 0.37 | 96 | |
| 20260506015635 | 59 | 318 | 0.0 | 0.0 | 0.05 | 0.36 | 0.36 | 96 | |
| 20260506015131 | 59 | 309 | 0.0 | 0.0 | 0.07 | 0.35 | 0.35 | 96 | |
| 20260506014629 | 59 | 325 | 0.0 | 0.0 | 0.05 | 0.34 | 0.34 | 95 | |
| 20260506014125 | 59 | 324 | 0.0 | 0.0 | 0.07 | 0.33 | 0.33 | 95 | |
| 20260506013623 | 59 | 310 | 0.0 | 0.0 | 0.14 | 0.33 | 0.33 | 95 | |
| 20260506013119 | 59 | 310 | 0.0 | 0.0 | 0.07 | 0.32 | 0.32 | 95 | |
| 20260506012616 | 59 | 281 | 0.0 | 0.0 | 0.05 | 0.31 | 0.31 | 95 | |
| 20260506012112 | 59 | 296 | 0.0 | 0.0 | 0.12 | 0.31 | 0.31 | 95 | |
| 20260506011610 | 59 | 248 | 0.0 | 0.0 | 0.00 | 0.29 | 0.29 | 95 | |
| 20260506011106 | 59 | 310 | 0.0 | 0.0 | 0.05 | 0.29 | 0.29 | 95 | |
| 20260506010600 | 59 | 299 | 0.0 | 0.0 | 0.05 | 0.29 | 0.29 | 95 | |
| 20260506010056 | 59 | 223 | 0.0 | 0.0 | 0.00 | 0.28 | 0.28 | 95 | |
| 20260506005553 | 59 | 137 | 0.0 | 3.0 | 0.00 | 0.28 | 0.28 | 95 | |
| 20260506005049 | 59 | 301 | 0.0 | 0.0 | 0.07 | 0.28 | 0.28 | 96 | |
| 20260506004547 | 59 | 316 | 0.0 | 0.0 | 0.07 | 0.28 | 0.28 | 96 | |
| 20260506004043 | 59 | 255 | 0.0 | 0.0 | 0.05 | 0.27 | 0.27 | 95 | |
| 20260506003540 | 60 | 252 | 0.0 | 0.0 | 0.05 | 0.27 | 0.27 | 95 | |
| 20260506003036 | 60 | 224 | 0.0 | 0.0 | 0.07 | 0.26 | 0.26 | 95 | |
| 20260506002532 | 60 | 195 | 0.0 | 2.0 | 0.00 | 0.25 | 0.25 | 95 | |
| 20260506002028 | 60 | 278 | 0.0 | 1.0 | 0.00 | 0.25 | 0.25 | 95 | |
| 20260506001524 | 60 | 239 | 0.0 | 1.0 | 0.00 | 0.25 | 0.25 | 95 | |
| 20260506001022 | 60 | 274 | 0.0 | 0.0 | 0.00 | 0.25 | 0.25 | 95 | |
| 20260506000519 | 60 | 322 | 0.0 | 0.0 | 0.05 | 0.25 | 0.25 | 95 | |
| 20260506000017 | 60 | 223 | 0.0 | 0.0 | 0.05 | 0.25 | 0.25 | 95 | |
| 20260505235515 | 59 | 217 | 0.0 | 1.0 | 0.07 | 0.24 | 0.24 | 95 |